Time,TemperatureF,DewpointF,PressureIn,WindDirection,WindDirectionDegrees,WindSpeedMPH,WindSpeedGustMPH,Humidity,HourlyPrecipIn,Conditions,Clouds,dailyrainin,SoftwareType,DateUTC
2013-01-01 00:00:00,35.3,26.0,29.82,NW,315,5.1,9.3,71,0.00,,,0.00,Rainwise IP-100,2013-01-01 05:00:00,
2013-01-01 00:05:00,35.4,26.0,29.82,West,270,5.6,10.3,71,0.00,,,0.00,Rainwise IP-100,2013-01-01 05:05:00,
2013-01-01 00:10:00,35.4,26.0,29.82,WNW,292,4.4,14.0,70,0.00,,,0.00,Rainwise IP-100,2013-01-01 05:10:00,
2013-01-01 00:15:00,35.4,26.0,29.82,WNW,292,4.7,9.8,70,0.00,,,0.00,Rainwise IP-100,2013-01-01 05:15:00,
2013-01-01 00:20:00,35.5,28.0,29.82,WNW,292,7.0,9.8,70,0.00,,,0.00,Rainwise IP-100,2013-01-01 05:20:00,
2013-01-01 00:25:00,35.5,28.0,29.83,WNW,292,7.5,10.5,70,0.00,,,0.00,Rainwise IP-100,2013-01-01 05:25:00,
2013-01-01 00:30:00,35.5,28.0,29.82,WNW,292,6.3,11.4,70,0.00,,,0.00,Rainwise IP-100,2013-01-01 05:30:00,
2013-01-01 00:35:00,35.6,28.0,29.82,WNW,292,5.6,10.5,70,0.00,,,0.00,Rainwise IP-100,2013-01-01 05:35:00,
2013-01-01 00:40:00,35.6,26.0,29.82,WNW,292,7.7,13.1,69,0.00,,,0.00,Rainwise IP-100,2013-01-01 05:40:00,
2013-01-01 00:45:00,35.6,26.0,29.81,West,270,6.1,10.3,69,0.00,,,0.00,Rainwise IP-100,2013-01-01 05:45:00,
2013-01-01 00:50:00,35.7,26.0,29.80,WNW,292,10.3,12.6,69,0.00,,,0.00,Rainwise IP-100,2013-01-01 05:50:00,
2013-01-01 00:55:00,35.7,26.0,29.81,WNW,292,6.8,11.4,69,0.00,,,0.00,Rainwise IP-100,2013-01-01 05:55:00,
2013-01-01 01:00:00,35.7,26.0,29.81,WNW,292,4.7,12.8,69,0.00,,,0.00,Rainwise IP-100,2013-01-01 06:00:00,
2013-01-01 01:05:00,35.7,26.0,29.81,WNW,292,3.7,11.0,69,0.00,,,0.00,Rainwise IP-100,2013-01-01 06:05:00,
2013-01-01 01:10:00,35.7,26.0,29.81,WNW,292,4.9,11.0,69,0.00,,,0.00,Rainwise IP-100,2013-01-01 06:10:00,
2013-01-01 01:15:00,35.7,26.0,29.80,WNW,292,7.0,11.7,69,0.00,,,0.00,Rainwise IP-100,2013-01-01 06:15:00,
2013-01-01 01:20:00,35.8,26.0,29.81,WNW,292,3.5,12.8,69,0.00,,,0.00,Rainwise IP-100,2013-01-01 06:20:00,
2013-01-01 01:25:00,35.9,26.0,29.81,WNW,292,9.3,9.6,68,0.00,,,0.00,Rainwise IP-100,2013-01-01 06:25:00,
2013-01-01 01:30:00,35.8,26.0,29.81,WNW,292,7.0,10.0,68,0.00,,,0.00,Rainwise IP-100,2013-01-01 06:30:00,
2013-01-01 01:35:00,35.8,26.0,29.81,WNW,292,2.8,11.4,68,0.00,,,0.00,Rainwise IP-100,2013-01-01 06:35:00,
2013-01-01 01:40:00,35.8,26.0,29.80,WSW,247,4.7,9.8,68,0.00,,,0.00,Rainwise IP-100,2013-01-01 06:40:00,
2013-01-01 01:45:00,35.8,26.0,29.80,WNW,292,7.2,8.9,68,0.00,,,0.00,Rainwise IP-100,2013-01-01 06:45:00,
2013-01-01 01:50:00,35.8,26.0,29.80,WNW,292,9.3,9.3,68,0.00,,,0.00,Rainwise IP-100,2013-01-01 06:50:00,
2013-01-01 01:54:00,35.9,26.0,29.80,WNW,292,3.0,9.8,68,0.00,,,0.00,Rainwise IP-100,2013-01-01 06:54:00,
2013-01-01 01:59:00,35.8,26.0,29.81,WNW,292,7.9,9.6,68,0.00,,,0.00,Rainwise IP-100,2013-01-01 06:59:00,
2013-01-01 02:04:00,35.7,26.0,29.81,WNW,292,2.6,8.6,69,0.00,,,0.00,Rainwise IP-100,2013-01-01 07:04:00,
2013-01-01 02:09:00,35.8,26.0,29.81,WSW,247,7.2,11.7,69,0.00,,,0.00,Rainwise IP-100,2013-01-01 07:09:00,
2013-01-01 02:14:00,35.9,26.0,29.81,WNW,292,9.1,11.7,68,0.00,,,0.00,Rainwise IP-100,2013-01-01 07:14:00,
2013-01-01 02:19:00,36.1,26.0,29.81,WNW,292,10.3,11.9,68,0.00,,,0.00,Rainwise IP-100,2013-01-01 07:19:00,
2013-01-01 02:24:00,36.3,26.0,29.81,WNW,292,11.2,11.9,67,0.00,,,0.00,Rainwise IP-100,2013-01-01 07:24:00,
2013-01-01 02:29:00,36.3,26.0,29.81,WNW,292,2.3,13.8,67,0.06,,,0.01,Rainwise IP-100,2013-01-01 07:29:00,
2013-01-01 02:34:00,36.3,26.0,29.80,WNW,292,6.3,9.8,67,0.06,,,0.01,Rainwise IP-100,2013-01-01 07:34:00,
2013-01-01 02:39:00,36.3,26.0,29.80,WNW,292,4.7,7.9,67,0.00,,,0.01,Rainwise IP-100,2013-01-01 07:39:00,
2013-01-01 02:44:00,36.3,26.0,29.80,WSW,247,6.8,11.0,67,0.00,,,0.01,Rainwise IP-100,2013-01-01 07:44:00,
2013-01-01 02:49:00,36.3,26.0,29.80,NW,315,4.4,9.3,67,0.00,,,0.01,Rainwise IP-100,2013-01-01 07:49:00,
2013-01-01 02:54:00,36.3,26.0,29.81,WNW,292,10.0,11.4,67,0.00,,,0.01,Rainwise IP-100,2013-01-01 07:54:00,
2013-01-01 02:59:00,36.4,26.0,29.81,WNW,292,5.8,10.3,67,0.00,,,0.01,Rainwise IP-100,2013-01-01 07:59:00,
2013-01-01 03:04:00,36.5,28.0,29.80,WNW,292,5.4,15.9,67,0.00,,,0.01,Rainwise IP-100,2013-01-01 08:04:00,
2013-01-01 03:09:00,36.5,28.0,29.81,WNW,292,4.9,14.5,67,0.00,,,0.01,Rainwise IP-100,2013-01-01 08:09:00,
2013-01-01 03:14:00,36.5,28.0,29.80,NNW,337,2.3,11.4,67,0.00,,,0.01,Rainwise IP-100,2013-01-01 08:14:00,
2013-01-01 03:19:00,36.4,26.0,29.80,WNW,292,8.6,13.1,67,0.00,,,0.01,Rainwise IP-100,2013-01-01 08:19:00,
2013-01-01 03:24:00,36.4,26.0,29.79,NW,315,4.4,11.7,67,0.00,,,0.01,Rainwise IP-100,2013-01-01 08:24:00,
2013-01-01 03:29:00,36.4,26.0,29.79,West,270,5.8,10.0,67,0.00,,,0.01,Rainwise IP-100,2013-01-01 08:29:00,
2013-01-01 03:34:00,36.4,26.0,29.79,WNW,292,3.7,11.0,67,0.00,,,0.01,Rainwise IP-100,2013-01-01 08:34:00,
2013-01-01 03:39:00,36.3,26.0,29.78,West,270,9.3,14.0,67,0.00,,,0.01,Rainwise IP-100,2013-01-01 08:39:00,
2013-01-01 03:44:00,36.3,26.0,29.79,NW,315,6.3,17.0,67,0.00,,,0.01,Rainwise IP-100,2013-01-01 08:44:00,
2013-01-01 03:49:00,36.5,28.0,29.79,WNW,292,1.9,10.7,67,0.00,,,0.01,Rainwise IP-100,2013-01-01 08:49:00,
2013-01-01 03:54:00,36.6,28.0,29.79,WNW,292,8.4,14.9,67,0.00,,,0.01,Rainwise IP-100,2013-01-01 08:54:00,
2013-01-01 03:56:00,36.6,28.0,29.79,WNW,292,9.3,14.5,66,0.00,,,0.01,Rainwise IP-100,2013-01-01 08:56:00,
2013-01-01 04:01:00,36.7,28.0,29.79,NW,315,4.4,10.3,66,0.00,,,0.01,Rainwise IP-100,2013-01-01 09:01:00,
2013-01-01 04:06:00,36.6,28.0,29.79,WNW,292,11.2,11.2,67,0.00,,,0.01,Rainwise IP-100,2013-01-01 09:06:00,
2013-01-01 04:11:00,36.7,28.0,29.78,WNW,292,5.8,11.7,66,0.00,,,0.01,Rainwise IP-100,2013-01-01 09:11:00,
2013-01-01 04:16:00,36.7,28.0,29.78,South,180,7.2,8.4,66,0.00,,,0.01,Rainwise IP-100,2013-01-01 09:16:00,
2013-01-01 04:21:00,36.6,28.0,29.78,WNW,292,5.1,9.6,67,0.00,,,0.01,Rainwise IP-100,2013-01-01 09:21:00,
2013-01-01 04:26:00,36.7,28.0,29.78,WNW,292,5.1,12.4,66,0.00,,,0.01,Rainwise IP-100,2013-01-01 09:26:00,
2013-01-01 04:31:00,36.6,28.0,29.78,West,270,6.5,11.9,66,0.00,,,0.01,Rainwise IP-100,2013-01-01 09:31:00,
2013-01-01 04:36:00,36.6,28.0,29.78,WSW,247,3.3,15.9,66,0.00,,,0.01,Rainwise IP-100,2013-01-01 09:36:00,
2013-01-01 04:41:00,36.7,28.0,29.78,NE,45,1.9,13.1,66,0.00,,,0.01,Rainwise IP-100,2013-01-01 09:41:00,
2013-01-01 04:46:00,36.8,26.0,29.79,NNW,337,3.5,15.2,65,0.00,,,0.01,Rainwise IP-100,2013-01-01 09:46:00,
2013-01-01 04:51:00,36.8,26.0,29.79,WNW,292,8.4,12.4,65,0.00,,,0.01,Rainwise IP-100,2013-01-01 09:51:00,
2013-01-01 04:56:00,36.7,28.0,29.79,WNW,292,10.5,14.5,66,0.00,,,0.01,Rainwise IP-100,2013-01-01 09:56:00,
2013-01-01 05:01:00,36.7,28.0,29.79,West,270,9.3,11.9,66,0.00,,,0.01,Rainwise IP-100,2013-01-01 10:01:00,
2013-01-01 05:06:00,36.8,28.0,29.79,WNW,292,5.1,13.1,66,0.00,,,0.01,Rainwise IP-100,2013-01-01 10:06:00,
2013-01-01 05:11:00,36.8,28.0,29.79,NNW,337,2.3,13.5,66,0.00,,,0.01,Rainwise IP-100,2013-01-01 10:11:00,
2013-01-01 05:16:00,36.7,28.0,29.79,NNW,337,7.0,16.1,66,0.00,,,0.01,Rainwise IP-100,2013-01-01 10:16:00,
2013-01-01 05:21:00,36.8,28.0,29.79,WNW,292,11.4,14.2,66,0.00,,,0.01,Rainwise IP-100,2013-01-01 10:21:00,
2013-01-01 05:26:00,36.8,28.0,29.79,WNW,292,16.6,16.6,66,0.00,,,0.01,Rainwise IP-100,2013-01-01 10:26:00,
2013-01-01 05:31:00,36.8,28.0,29.79,WNW,292,3.7,16.6,67,0.00,,,0.01,Rainwise IP-100,2013-01-01 10:31:00,
2013-01-01 05:36:00,36.6,28.0,29.79,West,270,11.2,16.6,67,0.00,,,0.01,Rainwise IP-100,2013-01-01 10:36:00,
2013-01-01 05:41:00,36.6,28.0,29.80,WNW,292,3.5,16.6,68,0.00,,,0.01,Rainwise IP-100,2013-01-01 10:41:00,
2013-01-01 05:46:00,36.5,28.0,29.79,WNW,292,6.5,16.3,68,0.00,,,0.01,Rainwise IP-100,2013-01-01 10:46:00,
2013-01-01 05:51:00,36.4,26.0,29.80,WNW,292,7.2,18.2,68,0.00,,,0.01,Rainwise IP-100,2013-01-01 10:51:00,
2013-01-01 05:56:00,36.3,26.0,29.80,WNW,292,8.2,20.5,68,0.00,,,0.01,Rainwise IP-100,2013-01-01 10:56:00,
2013-01-01 06:01:00,36.3,26.0,29.79,WNW,292,6.8,15.6,68,0.00,,,0.01,Rainwise IP-100,2013-01-01 11:01:00,
2013-01-01 06:06:00,36.2,26.0,29.80,WSW,247,1.6,16.1,69,0.00,,,0.01,Rainwise IP-100,2013-01-01 11:06:00,
2013-01-01 06:11:00,36.0,26.0,29.80,WNW,292,9.6,11.2,69,0.00,,,0.01,Rainwise IP-100,2013-01-01 11:11:00,
2013-01-01 06:16:00,36.0,28.0,29.80,WNW,292,7.9,13.5,70,0.00,,,0.01,Rainwise IP-100,2013-01-01 11:16:00,
2013-01-01 06:21:00,36.1,26.0,29.80,WNW,292,5.1,13.8,69,0.00,,,0.01,Rainwise IP-100,2013-01-01 11:21:00,
2013-01-01 06:26:00,36.1,28.0,29.80,WNW,292,8.4,12.8,70,0.00,,,0.01,Rainwise IP-100,2013-01-01 11:26:00,
2013-01-01 06:31:00,36.2,28.0,29.80,WNW,292,6.8,15.4,70,0.00,,,0.01,Rainwise IP-100,2013-01-01 11:31:00,
2013-01-01 06:36:00,36.2,28.0,29.80,WNW,292,5.1,14.7,70,0.00,,,0.01,Rainwise IP-100,2013-01-01 11:36:00,
2013-01-01 06:41:00,36.2,28.0,29.80,WNW,292,11.4,14.2,70,0.00,,,0.01,Rainwise IP-100,2013-01-01 11:41:00,
2013-01-01 06:46:00,36.2,28.0,29.80,WNW,292,4.2,15.2,70,0.00,,,0.01,Rainwise IP-100,2013-01-01 11:46:00,
2013-01-01 06:51:00,36.3,28.0,29.80,WNW,292,8.4,12.1,70,0.00,,,0.01,Rainwise IP-100,2013-01-01 11:51:00,
2013-01-01 06:56:00,36.4,28.0,29.80,WNW,292,11.0,12.1,70,0.00,,,0.01,Rainwise IP-100,2013-01-01 11:56:00,
2013-01-01 07:01:00,36.5,28.0,29.80,WNW,292,9.6,14.9,69,0.00,,,0.01,Rainwise IP-100,2013-01-01 12:01:00,
2013-01-01 07:06:00,36.5,28.0,29.80,WNW,292,6.8,19.6,69,0.00,,,0.01,Rainwise IP-100,2013-01-01 12:06:00,
2013-01-01 07:11:00,36.5,28.0,29.81,NW,315,7.9,12.4,69,0.00,,,0.01,Rainwise IP-100,2013-01-01 12:11:00,
2013-01-01 07:16:00,36.5,28.0,29.80,WSW,247,0.0,16.6,69,0.00,,,0.01,Rainwise IP-100,2013-01-01 12:16:00,
2013-01-01 07:21:00,36.5,28.0,29.81,WNW,292,11.4,18.2,69,0.00,,,0.01,Rainwise IP-100,2013-01-01 12:21:00,
2013-01-01 07:26:00,36.5,28.0,29.81,WNW,292,5.4,15.6,69,0.00,,,0.01,Rainwise IP-100,2013-01-01 12:26:00,
2013-01-01 07:31:00,36.5,28.0,29.81,WNW,292,11.4,13.8,69,0.00,,,0.01,Rainwise IP-100,2013-01-01 12:31:00,
2013-01-01 07:36:00,36.5,28.0,29.80,WNW,292,9.1,17.3,69,0.00,,,0.01,Rainwise IP-100,2013-01-01 12:36:00,
2013-01-01 07:41:00,36.5,28.0,29.80,WNW,292,5.6,20.5,69,0.00,,,0.01,Rainwise IP-100,2013-01-01 12:41:00,
2013-01-01 07:46:00,36.5,28.0,29.80,West,270,4.2,14.9,69,0.00,,,0.01,Rainwise IP-100,2013-01-01 12:46:00,
2013-01-01 07:51:00,36.5,28.0,29.81,WSW,247,5.4,14.9,68,0.00,,,0.01,Rainwise IP-100,2013-01-01 12:51:00,
2013-01-01 07:56:00,36.5,28.0,29.80,West,270,11.7,13.8,68,0.00,,,0.01,Rainwise IP-100,2013-01-01 12:56:00,
2013-01-01 08:01:00,36.5,28.0,29.80,NNW,337,3.0,13.5,69,0.00,,,0.01,Rainwise IP-100,2013-01-01 13:01:00,
2013-01-01 08:06:00,36.5,28.0,29.81,WNW,292,12.6,13.3,69,0.00,,,0.01,Rainwise IP-100,2013-01-01 13:06:00,
2013-01-01 08:11:00,36.5,28.0,29.81,WNW,292,12.4,13.1,69,0.00,,,0.01,Rainwise IP-100,2013-01-01 13:11:00,
2013-01-01 08:16:00,36.5,28.0,29.80,WNW,292,9.6,13.1,69,0.00,,,0.01,Rainwise IP-100,2013-01-01 13:16:00,
2013-01-01 08:21:00,36.5,28.0,29.80,West,270,9.3,16.1,70,0.00,,,0.01,Rainwise IP-100,2013-01-01 13:21:00,
2013-01-01 08:26:00,36.5,28.0,29.80,WNW,292,10.5,14.0,70,0.00,,,0.01,Rainwise IP-100,2013-01-01 13:26:00,
2013-01-01 08:31:00,36.6,28.0,29.81,NNE,22,3.5,16.6,70,0.00,,,0.01,Rainwise IP-100,2013-01-01 13:31:00,
2013-01-01 08:36:00,36.8,28.0,29.81,WNW,292,9.1,14.9,69,0.00,,,0.01,Rainwise IP-100,2013-01-01 13:36:00,
2013-01-01 08:41:00,37.1,28.0,29.80,WNW,292,11.4,15.4,69,0.00,,,0.01,Rainwise IP-100,2013-01-01 13:41:00,
2013-01-01 08:46:00,37.2,28.0,29.81,WNW,292,12.6,14.9,68,0.00,,,0.01,Rainwise IP-100,2013-01-01 13:46:00,
2013-01-01 08:51:00,37.2,28.0,29.81,WNW,292,11.7,16.1,68,0.00,,,0.01,Rainwise IP-100,2013-01-01 13:51:00,
2013-01-01 08:56:00,37.2,28.0,29.81,WNW,292,11.9,15.4,69,0.00,,,0.02,Rainwise IP-100,2013-01-01 13:56:00,
2013-01-01 09:01:00,37.3,28.0,29.80,WNW,292,6.8,18.4,69,0.06,,,0.02,Rainwise IP-100,2013-01-01 14:01:00,
2013-01-01 09:06:00,37.4,28.0,29.81,WNW,292,9.1,21.2,69,0.06,,,0.02,Rainwise IP-100,2013-01-01 14:06:00,
2013-01-01 09:11:00,37.4,28.0,29.82,WNW,292,14.0,19.8,68,0.00,,,0.02,Rainwise IP-100,2013-01-01 14:11:00,
2013-01-01 09:16:00,37.4,28.0,29.81,WSW,247,14.5,20.1,68,0.00,,,0.02,Rainwise IP-100,2013-01-01 14:16:00,
2013-01-01 09:21:00,37.4,28.0,29.82,WNW,292,15.6,17.0,68,0.00,,,0.03,Rainwise IP-100,2013-01-01 14:21:00,
2013-01-01 09:26:00,37.5,29.0,29.82,WNW,292,11.0,16.6,68,0.06,,,0.03,Rainwise IP-100,2013-01-01 14:26:00,
2013-01-01 09:31:00,37.6,28.0,29.81,WNW,292,12.8,17.7,67,0.06,,,0.03,Rainwise IP-100,2013-01-01 14:31:00,
2013-01-01 09:36:00,37.7,28.0,29.81,WNW,292,13.8,19.6,67,0.00,,,0.04,Rainwise IP-100,2013-01-01 14:36:00,
2013-01-01 09:41:00,37.7,28.0,29.81,WNW,292,10.5,20.3,67,0.06,,,0.04,Rainwise IP-100,2013-01-01 14:41:00,
2013-01-01 09:46:00,37.6,28.0,29.80,WNW,292,13.1,20.1,67,0.06,,,0.04,Rainwise IP-100,2013-01-01 14:46:00,
2013-01-01 09:51:00,37.5,28.0,29.81,WNW,292,5.6,15.4,67,0.00,,,0.05,Rainwise IP-100,2013-01-01 14:51:00,
2013-01-01 09:57:00,37.6,28.0,29.81,WNW,292,10.5,18.0,67,0.06,,,0.05,Rainwise IP-100,2013-01-01 14:57:00,
2013-01-01 10:02:00,37.7,28.0,29.81,WNW,292,10.3,21.0,66,0.06,,,0.05,Rainwise IP-100,2013-01-01 15:02:00,
2013-01-01 10:07:00,37.7,28.0,29.80,WNW,292,12.8,24.5,66,0.06,,,0.06,Rainwise IP-100,2013-01-01 15:07:00,
2013-01-01 10:12:00,37.7,28.0,29.81,WNW,292,15.2,17.3,66,0.06,,,0.06,Rainwise IP-100,2013-01-01 15:12:00,
2013-01-01 10:17:00,37.7,28.0,29.81,NW,315,6.5,22.6,65,0.06,,,0.07,Rainwise IP-100,2013-01-01 15:17:00,
2013-01-01 10:22:00,37.5,28.0,29.81,WNW,292,11.9,15.9,65,0.06,,,0.07,Rainwise IP-100,2013-01-01 15:22:00,
2013-01-01 10:27:00,37.5,28.0,29.81,WNW,292,13.8,21.5,65,0.00,,,0.07,Rainwise IP-100,2013-01-01 15:27:00,
2013-01-01 10:32:00,37.4,26.0,29.81,WNW,292,15.9,17.0,65,0.00,,,0.07,Rainwise IP-100,2013-01-01 15:32:00,
2013-01-01 10:37:00,37.3,26.0,29.81,WNW,292,8.2,25.6,65,0.06,,,0.08,Rainwise IP-100,2013-01-01 15:37:00,
2013-01-01 10:42:00,37.3,26.0,29.81,WNW,292,10.7,14.0,65,0.06,,,0.08,Rainwise IP-100,2013-01-01 15:42:00,
2013-01-01 10:48:00,37.3,26.0,29.80,NNW,337,7.0,7.0,65,0.00,,,0.00,Rainwise IP-100,2013-01-01 15:48:00,
2013-01-01 10:53:00,37.2,26.0,29.79,WNW,292,10.5,25.9,65,0.06,,,0.01,Rainwise IP-100,2013-01-01 15:53:00,
2013-01-01 10:58:00,37.0,26.0,29.79,WNW,292,11.9,18.9,65,0.06,,,0.01,Rainwise IP-100,2013-01-01 15:58:00,
2013-01-01 11:03:00,36.9,28.0,29.79,WNW,292,12.1,21.2,66,0.06,,,0.02,Rainwise IP-100,2013-01-01 16:03:00,
2013-01-01 11:08:00,36.9,28.0,29.80,WNW,292,10.5,16.3,66,0.06,,,0.02,Rainwise IP-100,2013-01-01 16:08:00,
2013-01-01 11:13:00,36.9,28.0,29.80,WNW,292,9.8,18.0,66,0.00,,,0.02,Rainwise IP-100,2013-01-01 16:13:00,
2013-01-01 11:18:00,36.8,28.0,29.80,WNW,292,9.3,10.0,66,0.00,,,0.02,Rainwise IP-100,2013-01-01 16:18:00,
2013-01-01 11:23:00,36.7,28.0,29.78,WNW,292,15.9,17.5,67,0.00,,,0.02,Rainwise IP-100,2013-01-01 16:23:00,
2013-01-01 11:28:00,36.6,28.0,29.79,NNW,337,10.7,15.9,67,0.00,,,0.02,Rainwise IP-100,2013-01-01 16:28:00,
2013-01-01 11:33:00,36.7,28.0,29.79,WSW,247,4.9,14.7,67,0.06,,,0.03,Rainwise IP-100,2013-01-01 16:33:00,
2013-01-01 11:38:00,36.8,28.0,29.79,WNW,292,24.0,26.1,66,0.06,,,0.03,Rainwise IP-100,2013-01-01 16:38:00,
2013-01-01 11:43:00,36.7,26.0,29.78,NW,315,20.1,24.0,65,0.00,,,0.03,Rainwise IP-100,2013-01-01 16:43:00,
2013-01-01 11:48:00,36.6,26.0,29.79,WNW,292,10.3,20.1,63,0.00,,,0.03,Rainwise IP-100,2013-01-01 16:48:00,
2013-01-01 11:53:00,36.5,26.0,29.79,NNW,337,12.6,14.5,62,0.00,,,0.04,Rainwise IP-100,2013-01-01 16:53:00,
2013-01-01 11:58:00,36.5,24.0,29.78,WNW,292,14.5,26.3,60,0.06,,,0.04,Rainwise IP-100,2013-01-01 16:58:00,
2013-01-01 12:03:00,36.3,23.0,29.79,WNW,292,17.5,27.0,57,0.06,,,0.04,Rainwise IP-100,2013-01-01 17:03:00,
2013-01-01 12:08:00,36.2,23.0,29.78,WNW,292,15.6,23.1,55,0.00,,,0.04,Rainwise IP-100,2013-01-01 17:08:00,
2013-01-01 12:13:00,36.1,21.0,29.78,WNW,292,12.8,23.6,54,0.00,,,0.04,Rainwise IP-100,2013-01-01 17:13:00,
2013-01-01 12:18:00,36.0,21.0,29.78,WNW,292,17.7,22.4,54,0.00,,,0.04,Rainwise IP-100,2013-01-01 17:18:00,
2013-01-01 12:23:00,35.9,21.0,29.78,West,270,8.4,22.4,54,0.00,,,0.04,Rainwise IP-100,2013-01-01 17:23:00,
2013-01-01 12:28:00,35.9,21.0,29.78,WNW,292,12.6,12.8,54,0.00,,,0.04,Rainwise IP-100,2013-01-01 17:28:00,
2013-01-01 12:33:00,35.9,21.0,29.77,WNW,292,15.2,15.9,54,0.00,,,0.04,Rainwise IP-100,2013-01-01 17:33:00,
2013-01-01 12:38:00,35.8,21.0,29.78,NW,315,19.6,21.0,53,0.00,,,0.04,Rainwise IP-100,2013-01-01 17:38:00,
2013-01-01 12:43:00,35.7,21.0,29.76,WNW,292,4.9,20.8,53,0.00,,,0.04,Rainwise IP-100,2013-01-01 17:43:00,
2013-01-01 12:48:00,35.6,21.0,29.77,WNW,292,14.7,19.6,53,0.00,,,0.04,Rainwise IP-100,2013-01-01 17:48:00,
2013-01-01 12:53:00,35.6,21.0,29.77,WNW,292,18.0,18.0,53,0.00,,,0.04,Rainwise IP-100,2013-01-01 17:53:00,
2013-01-01 12:58:00,35.6,21.0,29.77,WNW,292,10.5,20.3,52,0.00,,,0.04,Rainwise IP-100,2013-01-01 17:58:00,
2013-01-01 13:03:00,35.6,21.0,29.76,NW,315,3.7,18.2,52,0.00,,,0.04,Rainwise IP-100,2013-01-01 18:03:00,
2013-01-01 13:08:00,35.6,21.0,29.78,WNW,292,6.5,22.2,52,0.00,,,0.04,Rainwise IP-100,2013-01-01 18:08:00,
2013-01-01 13:13:00,35.5,21.0,29.78,NNW,337,6.8,15.2,53,0.00,,,0.04,Rainwise IP-100,2013-01-01 18:13:00,
2013-01-01 13:18:00,35.5,21.0,29.78,NW,315,5.6,14.0,54,0.00,,,0.04,Rainwise IP-100,2013-01-01 18:18:00,
2013-01-01 13:23:00,35.5,21.0,29.78,WNW,292,11.0,17.5,54,0.00,,,0.04,Rainwise IP-100,2013-01-01 18:23:00,
2013-01-01 13:28:00,35.5,21.0,29.78,WNW,292,3.7,15.9,54,0.00,,,0.04,Rainwise IP-100,2013-01-01 18:28:00,
2013-01-01 13:33:00,35.5,21.0,29.78,NW,315,14.0,19.4,54,0.00,,,0.04,Rainwise IP-100,2013-01-01 18:33:00,
2013-01-01 13:38:00,35.5,21.0,29.78,WNW,292,8.6,18.2,53,0.00,,,0.04,Rainwise IP-100,2013-01-01 18:38:00,
2013-01-01 13:43:00,35.4,21.0,29.77,WNW,292,13.1,19.8,53,0.00,,,0.04,Rainwise IP-100,2013-01-01 18:43:00,
2013-01-01 13:48:00,35.3,21.0,29.77,WNW,292,9.8,18.7,53,0.00,,,0.04,Rainwise IP-100,2013-01-01 18:48:00,
2013-01-01 13:53:00,35.2,21.0,29.77,WNW,292,8.4,16.8,53,0.00,,,0.04,Rainwise IP-100,2013-01-01 18:53:00,
2013-01-01 13:58:00,35.2,21.0,29.78,WNW,292,12.6,20.8,53,0.00,,,0.04,Rainwise IP-100,2013-01-01 18:58:00,
2013-01-01 14:03:00,35.2,21.0,29.78,WNW,292,9.6,16.6,53,0.00,,,0.04,Rainwise IP-100,2013-01-01 19:03:00,
2013-01-01 14:08:00,35.1,18.0,29.77,NNW,337,4.7,20.3,52,0.00,,,0.04,Rainwise IP-100,2013-01-01 19:08:00,
2013-01-01 14:13:00,35.1,18.0,29.77,WNW,292,4.2,17.0,52,0.00,,,0.04,Rainwise IP-100,2013-01-01 19:13:00,
2013-01-01 14:18:00,35.1,21.0,29.78,WNW,292,14.5,16.3,53,0.00,,,0.04,Rainwise IP-100,2013-01-01 19:18:00,
2013-01-01 14:23:00,35.0,21.0,29.78,NNW,337,4.9,17.3,53,0.00,,,0.04,Rainwise IP-100,2013-01-01 19:23:00,
2013-01-01 14:28:00,35.0,21.0,29.78,WNW,292,9.3,14.7,53,0.00,,,0.04,Rainwise IP-100,2013-01-01 19:28:00,
2013-01-01 14:33:00,34.9,21.0,29.78,NW,315,6.1,19.1,53,0.00,,,0.04,Rainwise IP-100,2013-01-01 19:33:00,
2013-01-01 14:38:00,34.8,21.0,29.78,WNW,292,2.3,12.6,53,0.00,,,0.04,Rainwise IP-100,2013-01-01 19:38:00,
2013-01-01 14:43:00,34.8,21.0,29.78,WNW,292,4.2,19.1,54,0.00,,,0.04,Rainwise IP-100,2013-01-01 19:43:00,
2013-01-01 14:48:00,34.8,21.0,29.78,WNW,292,9.8,15.2,54,0.00,,,0.04,Rainwise IP-100,2013-01-01 19:48:00,
2013-01-01 14:53:00,34.8,21.0,29.77,NW,315,10.5,17.0,53,0.00,,,0.04,Rainwise IP-100,2013-01-01 19:53:00,
2013-01-01 14:58:00,34.8,21.0,29.77,WNW,292,7.7,19.6,53,0.00,,,0.04,Rainwise IP-100,2013-01-01 19:58:00,
2013-01-01 15:03:00,34.7,21.0,29.77,WNW,292,11.9,17.0,53,0.00,,,0.04,Rainwise IP-100,2013-01-01 20:03:00,
2013-01-01 15:08:00,34.7,18.0,29.77,West,270,4.7,21.7,52,0.00,,,0.04,Rainwise IP-100,2013-01-01 20:08:00,
2013-01-01 15:13:00,34.6,18.0,29.78,WNW,292,13.1,19.6,52,0.00,,,0.04,Rainwise IP-100,2013-01-01 20:13:00,
2013-01-01 15:18:00,34.5,18.0,29.78,WNW,292,5.4,18.7,52,0.00,,,0.04,Rainwise IP-100,2013-01-01 20:18:00,
2013-01-01 15:23:00,34.5,18.0,29.79,WNW,292,6.8,17.0,51,0.00,,,0.04,Rainwise IP-100,2013-01-01 20:23:00,
2013-01-01 15:28:00,34.4,18.0,29.79,West,270,7.9,16.6,51,0.00,,,0.04,Rainwise IP-100,2013-01-01 20:28:00,
2013-01-01 15:33:00,34.3,18.0,29.78,ENE,67,2.3,15.9,52,0.00,,,0.04,Rainwise IP-100,2013-01-01 20:33:00,
2013-01-01 15:38:00,34.2,21.0,29.79,WNW,292,5.4,19.6,53,0.00,,,0.04,Rainwise IP-100,2013-01-01 20:38:00,
2013-01-01 15:43:00,34.1,21.0,29.79,NW,315,7.7,14.9,53,0.00,,,0.04,Rainwise IP-100,2013-01-01 20:43:00,
2013-01-01 15:48:00,34.0,21.0,29.78,WNW,292,6.8,15.2,53,0.00,,,0.04,Rainwise IP-100,2013-01-01 20:48:00,
2013-01-01 15:53:00,33.9,21.0,29.78,NW,315,7.9,13.1,53,0.00,,,0.04,Rainwise IP-100,2013-01-01 20:53:00,
2013-01-01 15:58:00,33.8,21.0,29.78,NNW,337,4.7,11.4,53,0.00,,,0.04,Rainwise IP-100,2013-01-01 20:58:00,
2013-01-01 16:03:00,33.8,21.0,29.78,NW,315,4.2,15.6,53,0.00,,,0.04,Rainwise IP-100,2013-01-01 21:03:00,
2013-01-01 16:08:00,33.7,18.0,29.78,NNW,337,4.4,17.5,52,0.00,,,0.04,Rainwise IP-100,2013-01-01 21:08:00,
2013-01-01 16:13:00,33.7,18.0,29.79,WNW,292,14.5,19.6,52,0.00,,,0.04,Rainwise IP-100,2013-01-01 21:13:00,
2013-01-01 16:18:00,33.7,18.0,29.79,NW,315,15.2,15.2,52,0.00,,,0.04,Rainwise IP-100,2013-01-01 21:18:00,
2013-01-01 16:23:00,33.5,18.0,29.80,WNW,292,11.7,16.3,52,0.00,,,0.04,Rainwise IP-100,2013-01-01 21:23:00,
2013-01-01 16:28:00,33.4,18.0,29.80,NNW,337,9.1,11.7,53,0.00,,,0.04,Rainwise IP-100,2013-01-01 21:28:00,
2013-01-01 16:33:00,33.2,18.0,29.80,WNW,292,6.8,10.0,54,0.00,,,0.04,Rainwise IP-100,2013-01-01 21:33:00,
2013-01-01 16:38:00,33.1,18.0,29.80,NNE,22,4.9,14.9,54,0.00,,,0.04,Rainwise IP-100,2013-01-01 21:38:00,
2013-01-01 16:43:00,33.1,18.0,29.80,NNW,337,13.3,14.0,54,0.00,,,0.04,Rainwise IP-100,2013-01-01 21:43:00,
2013-01-01 16:48:00,33.0,18.0,29.81,WNW,292,9.8,14.0,53,0.00,,,0.04,Rainwise IP-100,2013-01-01 21:48:00,
2013-01-01 16:53:00,32.9,18.0,29.81,WNW,292,8.4,16.6,53,0.00,,,0.04,Rainwise IP-100,2013-01-01 21:53:00,
2013-01-01 16:58:00,32.7,18.0,29.81,WNW,292,8.9,15.9,53,0.00,,,0.04,Rainwise IP-100,2013-01-01 21:58:00,
2013-01-01 17:03:00,32.6,18.0,29.82,WNW,292,5.4,12.4,53,0.00,,,0.04,Rainwise IP-100,2013-01-01 22:03:00,
2013-01-01 17:08:00,32.5,18.0,29.82,WNW,292,7.2,13.1,53,0.00,,,0.04,Rainwise IP-100,2013-01-01 22:08:00,
2013-01-01 17:13:00,32.4,18.0,29.83,WNW,292,4.0,12.1,53,0.00,,,0.04,Rainwise IP-100,2013-01-01 22:13:00,
2013-01-01 17:18:00,32.1,18.0,29.83,WNW,292,6.5,11.4,53,0.00,,,0.04,Rainwise IP-100,2013-01-01 22:18:00,
2013-01-01 17:23:00,32.0,18.0,29.84,WNW,292,4.4,12.4,53,0.00,,,0.04,Rainwise IP-100,2013-01-01 22:23:00,
2013-01-01 17:28:00,31.9,18.0,29.84,WNW,292,9.1,14.9,54,0.00,,,0.04,Rainwise IP-100,2013-01-01 22:28:00,
2013-01-01 17:33:00,31.8,18.0,29.83,NNE,22,1.6,14.9,54,0.00,,,0.04,Rainwise IP-100,2013-01-01 22:33:00,
2013-01-01 17:38:00,31.6,18.0,29.84,WNW,292,8.9,13.1,55,0.00,,,0.04,Rainwise IP-100,2013-01-01 22:38:00,
2013-01-01 17:43:00,31.6,18.0,29.84,WNW,292,10.5,11.4,54,0.00,,,0.04,Rainwise IP-100,2013-01-01 22:43:00,
2013-01-01 17:48:00,31.5,18.0,29.84,WNW,292,7.5,11.4,54,0.00,,,0.04,Rainwise IP-100,2013-01-01 22:48:00,
2013-01-01 17:53:00,31.5,18.0,29.84,WNW,292,7.9,16.3,54,0.00,,,0.04,Rainwise IP-100,2013-01-01 22:53:00,
2013-01-01 17:58:00,31.3,16.0,29.84,WNW,292,6.8,11.0,53,0.00,,,0.04,Rainwise IP-100,2013-01-01 22:58:00,
2013-01-01 18:03:00,31.2,16.0,29.84,WNW,292,10.5,18.9,53,0.00,,,0.04,Rainwise IP-100,2013-01-01 23:03:00,
2013-01-01 18:08:00,31.1,16.0,29.84,WNW,292,6.1,12.6,52,0.00,,,0.04,Rainwise IP-100,2013-01-01 23:08:00,
2013-01-01 18:13:00,31.0,16.0,29.84,WNW,292,3.5,9.3,52,0.00,,,0.04,Rainwise IP-100,2013-01-01 23:13:00,
2013-01-01 18:18:00,31.0,16.0,29.85,WNW,292,7.2,14.2,52,0.00,,,0.04,Rainwise IP-100,2013-01-01 23:18:00,
2013-01-01 18:23:00,30.9,16.0,29.85,NW,315,6.5,14.2,52,0.00,,,0.04,Rainwise IP-100,2013-01-01 23:23:00,
2013-01-01 18:28:00,30.8,16.0,29.87,NW,315,4.9,12.1,53,0.00,,,0.04,Rainwise IP-100,2013-01-01 23:28:00,
2013-01-01 18:33:00,30.7,16.0,29.86,WNW,292,6.3,10.3,53,0.00,,,0.04,Rainwise IP-100,2013-01-01 23:33:00,
2013-01-01 18:38:00,30.5,16.0,29.85,NW,315,11.2,18.7,53,0.00,,,0.04,Rainwise IP-100,2013-01-01 23:38:00,
2013-01-01 18:43:00,30.5,16.0,29.86,WNW,292,13.5,23.1,52,0.00,,,0.04,Rainwise IP-100,2013-01-01 23:43:00,
2013-01-01 18:48:00,30.5,16.0,29.86,WNW,292,9.8,14.9,52,0.00,,,0.04,Rainwise IP-100,2013-01-01 23:48:00,
2013-01-01 18:53:00,30.4,16.0,29.86,WNW,292,10.3,14.5,52,0.00,,,0.04,Rainwise IP-100,2013-01-01 23:53:00,
2013-01-01 18:58:00,30.3,16.0,29.86,WNW,292,12.1,21.9,52,0.00,,,0.04,Rainwise IP-100,2013-01-01 23:58:00,
2013-01-01 19:03:00,30.2,16.0,29.86,WNW,292,8.9,19.1,52,0.00,,,0.04,Rainwise IP-100,2013-01-02 00:03:00,
2013-01-01 19:08:00,30.1,16.0,29.87,WNW,292,9.8,9.8,52,0.00,,,0.00,Rainwise IP-100,2013-01-02 00:08:00,
2013-01-01 19:13:00,30.1,16.0,29.86,WNW,292,12.1,16.6,52,0.00,,,0.00,Rainwise IP-100,2013-01-02 00:13:00,
2013-01-01 19:18:00,30.0,16.0,29.86,NNW,337,3.7,19.6,52,0.00,,,0.00,Rainwise IP-100,2013-01-02 00:18:00,
2013-01-01 19:23:00,29.9,16.0,29.86,NNW,337,7.9,15.6,52,0.00,,,0.00,Rainwise IP-100,2013-01-02 00:23:00,
2013-01-01 19:28:00,29.7,16.0,29.86,WNW,292,10.7,15.6,53,0.00,,,0.00,Rainwise IP-100,2013-01-02 00:28:00,
2013-01-01 19:33:00,29.6,16.0,29.87,WNW,292,11.2,14.2,53,0.00,,,0.00,Rainwise IP-100,2013-01-02 00:33:00,
2013-01-01 19:38:00,29.5,16.0,29.87,WNW,292,13.3,13.3,53,0.00,,,0.00,Rainwise IP-100,2013-01-02 00:38:00,
2013-01-01 19:43:00,29.4,14.0,29.86,WNW,292,6.5,13.3,53,0.00,,,0.00,Rainwise IP-100,2013-01-02 00:43:00,
2013-01-01 19:48:00,29.3,14.0,29.87,WNW,292,10.3,13.8,53,0.00,,,0.00,Rainwise IP-100,2013-01-02 00:48:00,
2013-01-01 19:53:00,29.3,14.0,29.87,West,270,8.2,11.9,53,0.00,,,0.00,Rainwise IP-100,2013-01-02 00:53:00,
2013-01-01 19:58:00,29.1,14.0,29.88,NW,315,7.0,14.9,53,0.00,,,0.00,Rainwise IP-100,2013-01-02 00:58:00,
2013-01-01 20:03:00,29.1,16.0,29.88,WNW,292,10.0,14.0,54,0.00,,,0.00,Rainwise IP-100,2013-01-02 01:03:00,
2013-01-01 20:08:00,29.1,16.0,29.88,WNW,292,6.5,14.2,54,0.00,,,0.00,Rainwise IP-100,2013-01-02 01:08:00,
2013-01-01 20:13:00,29.1,16.0,29.88,WNW,292,12.4,17.3,54,0.00,,,0.00,Rainwise IP-100,2013-01-02 01:13:00,
2013-01-01 20:18:00,29.0,16.0,29.89,NNW,337,7.2,13.1,54,0.00,,,0.00,Rainwise IP-100,2013-01-02 01:18:00,
2013-01-01 20:23:00,28.9,16.0,29.88,NNW,337,1.4,15.2,54,0.00,,,0.00,Rainwise IP-100,2013-01-02 01:23:00,
2013-01-01 20:28:00,28.8,16.0,29.88,West,270,0.0,17.5,54,0.00,,,0.00,Rainwise IP-100,2013-01-02 01:28:00,
2013-01-01 20:33:00,28.7,16.0,29.89,WNW,292,4.4,12.1,54,0.00,,,0.00,Rainwise IP-100,2013-01-02 01:33:00,
2013-01-01 20:38:00,28.6,16.0,29.88,NNE,22,2.3,7.5,55,0.00,,,0.00,Rainwise IP-100,2013-01-02 01:38:00,
2013-01-01 20:43:00,28.4,14.0,29.89,WNW,292,9.8,11.2,56,0.00,,,0.00,Rainwise IP-100,2013-01-02 01:43:00,
2013-01-01 20:48:00,28.3,14.0,29.89,WNW,292,7.0,11.2,56,0.00,,,0.00,Rainwise IP-100,2013-01-02 01:48:00,
2013-01-01 20:53:00,28.2,14.0,29.89,WNW,292,5.4,9.3,56,0.00,,,0.00,Rainwise IP-100,2013-01-02 01:53:00,
2013-01-01 20:58:00,28.0,16.0,29.89,WNW,292,0.0,7.9,57,0.00,,,0.00,Rainwise IP-100,2013-01-02 01:58:00,
2013-01-01 21:03:00,27.8,16.0,29.89,WNW,292,7.9,11.7,58,0.00,,,0.00,Rainwise IP-100,2013-01-02 02:03:00,
2013-01-01 21:08:00,27.7,16.0,29.90,NW,315,2.8,9.8,58,0.00,,,0.00,Rainwise IP-100,2013-01-02 02:08:00,
2013-01-01 21:13:00,27.7,16.0,29.90,WNW,292,4.7,7.9,58,0.00,,,0.00,Rainwise IP-100,2013-01-02 02:13:00,
2013-01-01 21:18:00,27.6,16.0,29.90,WNW,292,12.1,12.1,58,0.00,,,0.00,Rainwise IP-100,2013-01-02 02:18:00,
2013-01-01 21:23:00,27.5,16.0,29.90,WNW,292,6.1,12.1,58,0.00,,,0.00,Rainwise IP-100,2013-01-02 02:23:00,
2013-01-01 21:28:00,27.4,16.0,29.90,WNW,292,6.1,10.3,57,0.00,,,0.00,Rainwise IP-100,2013-01-02 02:28:00,
2013-01-01 21:33:00,27.4,16.0,29.90,WNW,292,13.5,13.8,57,0.00,,,0.00,Rainwise IP-100,2013-01-02 02:33:00,
2013-01-01 21:38:00,27.4,16.0,29.90,WNW,292,2.6,13.5,57,0.00,,,0.00,Rainwise IP-100,2013-01-02 02:38:00,
2013-01-01 21:43:00,27.2,16.0,29.90,WNW,292,7.5,11.2,58,0.00,,,0.00,Rainwise IP-100,2013-01-02 02:43:00,
2013-01-01 21:48:00,27.1,16.0,29.90,WNW,292,11.7,11.7,58,0.00,,,0.00,Rainwise IP-100,2013-01-02 02:48:00,
2013-01-01 21:53:00,27.0,16.0,29.90,WNW,292,7.5,11.7,58,0.00,,,0.00,Rainwise IP-100,2013-01-02 02:53:00,
2013-01-01 21:58:00,26.9,16.0,29.90,WNW,292,5.4,11.0,59,0.00,,,0.00,Rainwise IP-100,2013-01-02 02:58:00,
2013-01-01 22:03:00,26.9,16.0,29.90,WNW,292,7.9,10.7,59,0.00,,,0.00,Rainwise IP-100,2013-01-02 03:03:00,
2013-01-01 22:08:00,26.7,16.0,29.90,WNW,292,5.1,10.7,59,0.00,,,0.00,Rainwise IP-100,2013-01-02 03:08:00,
2013-01-01 22:13:00,26.6,16.0,29.91,NNW,337,7.9,9.8,59,0.00,,,0.00,Rainwise IP-100,2013-01-02 03:13:00,
2013-01-01 22:18:00,26.5,16.0,29.90,WNW,292,10.7,10.7,60,0.00,,,0.00,Rainwise IP-100,2013-01-02 03:18:00,
2013-01-01 22:23:00,26.4,14.0,29.90,NNW,337,3.3,11.2,60,0.00,,,0.00,Rainwise IP-100,2013-01-02 03:23:00,
2013-01-01 22:28:00,26.4,14.0,29.91,WNW,292,6.5,10.7,60,0.00,,,0.00,Rainwise IP-100,2013-01-02 03:28:00,
2013-01-01 22:33:00,26.3,14.0,29.91,WNW,292,6.5,8.9,60,0.00,,,0.00,Rainwise IP-100,2013-01-02 03:33:00,
2013-01-01 22:38:00,26.2,14.0,29.92,WNW,292,6.5,10.0,60,0.00,,,0.00,Rainwise IP-100,2013-01-02 03:38:00,